[[{"header":{"parameterUnit":"m.s-1","parameterCategory":1,"la1":30.2991,"la2":30.254,"lo1":-89.0895,"lo2":-89.0444,"dy":0.0017,"dx":0.0017,"nx":28,"ny":28,"refTime":"2024-05-05T09:00:00:Z","depth":0,"parameterNumber":2,"parameterNumberName":"U-component_of_WINDS"},"data":[0,0,0,0,0,0,0,0,0,0,0,0,0,0,0,0,0,0,0,0,0,0,0,0,0,0,0,0,0,0,0,0,0,0,0,0,0,0,0,0,0,0,0,0,0,0,0,0,0,0,0,0,0,0,0,0,0,0,-5.2802,-5.2803,0,-5.2903,-5.2904,-5.2905,-5.2841,-5.2838,-5.2835,-5.2832,-5.2933,-5.2938,-5.2944,0,0,0,0,0,0,0,0,0,0,0,0,0,-5.2553,-5.2558,-5.2802,-5.2803,-5.2805,-5.2902,-5.2904,-5.2905,-5.2841,-5.2837,-5.2834,-5.283,-5.2931,-5.2938,-5.2944,0,0,0,0,0,0,0,0,0,0,0,0,0,-5.2658,-5.256,-5.2802,-5.2784,-5.2784,-5.2902,-5.2904,-5.2906,-5.2842,-5.2837,-5.2833,-5.2829,-5.2929,-5.2937,-5.2945,-5.3086,0,0,-5.297,-5.2974,0,0,0,0,0,0,0,0,-5.2652,-5.2667,-5.2786,-5.2786,-5.2785,-5.2854,-5.2853,-5.2966,-5.2843,-5.282,-5.2832,-5.2826,-5.2911,-5.292,-5.2949,-5.3091,-5.3095,-5.2971,-5.2976,-5.298,-5.2982,0,0,0,0,0,0,0,-5.2645,-5.2663,-5.2842,-5.2787,-5.2787,-5.2771,-5.2781,-5.2874,-5.2889,-5.2821,-5.2817,-5.283,-5.2909,-5.2941,-5.2951,-5.3096,-5.2971,-5.2978,-5.2983,-5.2987,-5.3358,-5.3363,0,0,0,0,0,0,-5.2639,-5.2657,-5.2838,-5.2845,-5.2706,-5.2779,-5.279,-5.2837,-5.2888,-5.2891,-5.2834,-5.2827,-5.2929,-5.2941,-5.2954,-5.3121,-5.298,-5.2987,-5.2992,-5.3354,-5.336,-5.3365,0,0,0,0,0,0,-5.2634,-5.2656,-5.2834,-5.275,-5.2771,-5.2788,-5.2841,-5.2841,-5.2872,-5.2897,-5.2899,-5.2863,-5.2926,-5.2942,-5.3054,-5.3124,-5.2991,-5.2999,-5.3348,-5.3355,-5.3362,-5.3457,0,0,0,0,0,0,-5.2627,-5.2655,-5.2709,-5.2751,-5.2776,-5.2933,-5.2845,-5.2846,-5.2887,-5.2879,-5.2925,-5.2929,-5.2924,-5.3042,-5.3062,-5.3133,-5.3005,-5.3341,-5.3351,-5.336,-5.3448,-5.3467,-5.3483,0,0,0,0,0,-5.2619,-5.2731,-5.2712,-5.2734,-5.2844,-5.2937,-5.2951,-5.2944,-5.2893,-5.2947,-5.2963,-5.2927,-5.3113,-5.3054,-5.3076,-5.315,-5.3337,-5.3348,-5.3359,-5.344,-5.3463,-5.3483,0,0,0,0,0,0,-5.2695,-5.2736,-5.2715,-5.2845,-5.2888,-5.2926,-5.2994,-5.2969,-5.3027,-5.3016,-5.3004,-5.3016,-5.3132,-5.3152,-5.3085,-5.3289,-5.3217,-5.3233,-5.3271,-5.3293,-5.331,-5.3302,-5.3012,0,0,0,0,0,-5.2727,-5.28,-5.2832,-5.2943,-5.2966,-5.2977,-5.3017,-5.3008,-5.3052,-5.307,-5.3094,-5.3137,-5.3206,-5.3251,-5.3315,-5.3451,-5.346,-5.3513,-5.3531,-5.3545,-5.3559,-5.3632,-5.3655,-5.3401,-5.3401,-5.3401,0,0,-5.2793,-5.2825,-5.2871,-5.2959,-5.2991,-5.3067,-5.2992,-5.3075,-5.313,-5.3082,-5.3188,-5.3208,-5.3256,-5.338,-5.3436,-5.3401,-5.3631,-5.356,-5.3571,-5.3576,-5.3645,-5.3669,-5.3691,-5.3409,-5.3408,-5.3406,0,0,-5.2952,-5.2984,-5.308,-5.3114,-5.3165,-5.3171,-5.3195,-5.3237,-5.3248,-5.3355,-5.332,-5.3386,-5.3504,-5.354,-5.3574,-5.3748,-5.3717,-5.3769,-5.3861,-5.3932,-5.3952,-5.397,-5.4031,-5.4053,-5.3783,-5.3783,-5.3784,0,-5.3027,-5.314,-5.3132,-5.3218,-5.3257,-5.3218,-5.3314,-5.3348,-5.3417,-5.3445,-5.3405,-5.3552,-5.3582,-5.3714,-5.3756,-5.3786,-5.3811,-5.3763,-5.395,-5.3968,-5.3984,-5.4042,-5.4065,-5.3789,-5.3789,-5.3788,-5.3787,0,-5.323,-5.3309,-5.338,-5.3448,-5.3496,-5.3587,-5.3592,-5.3641,-5.3628,-5.3639,-5.3748,-5.3783,-5.3854,-5.3885,-5.3873,-5.4015,-5.3991,-5.3952,-5.3879,-5.4014,-5.4068,-5.4091,-5.3798,-5.3796,-5.3794,-5.3792,0,0,-5.3437,-5.3501,-5.3527,-5.3557,-5.3611,-5.3672,-5.3761,-5.3831,-5.3872,-5.3922,-5.3996,-5.4098,-5.4061,-5.4099,-5.4091,-5.4154,-5.4289,-5.4106,-5.4107,-5.4138,-5.4447,-5.4475,-5.4501,-5.427,-5.4274,-5.4277,-5.4442,0,-5.3598,-5.3754,-5.375,-5.3894,-5.3966,-5.3932,-5.4009,-5.405,-5.4064,-5.4126,-5.414,-5.4212,-5.4159,-5.4182,-5.4243,-5.426,-5.435,-5.4248,-5.4337,-5.434,-5.4324,-5.4529,-5.456,-5.4713,-5.4463,-5.4467,-5.447,0,-5.3806,-5.3863,-5.4015,-5.4058,-5.4088,-5.4158,-5.4222,-5.4283,-5.4329,-5.4334,-5.4378,-5.4361,-5.4451,-5.4378,-5.4501,-5.4432,-5.4468,-5.4482,-5.4488,-5.4494,-5.4411,-5.4539,-5.4762,-5.4784,-5.4503,-5.45,-5.4498,0,-5.3939,-5.4055,-5.416,-5.4188,-5.4242,-5.4291,-5.4316,-5.4358,-5.44,-5.4456,-5.4483,-5.4549,-5.4585,-5.4636,-5.4636,-5.4583,-5.4761,-5.4688,-5.4767,-5.4767,-5.4804,-5.4801,-5.5033,-5.4831,-5.4831,-5.483,-5.483,0,-5.4118,-5.4212,-5.4221,-5.4286,-5.439,-5.4385,-5.4489,-5.4508,-5.4547,-5.4614,-5.4589,-5.4653,-5.465,-5.4716,-5.4717,-5.4818,-5.4835,-5.4841,-5.484,-5.4842,-5.4841,-5.4864,-5.4853,-5.4836,-5.4835,-5.4834,-5.4833,0,-5.4284,-5.4294,-5.4407,-5.4449,-5.4462,-5.4537,-5.4573,-5.4635,-5.4646,-5.4732,-5.4752,-5.477,-5.4845,-5.4852,-5.4939,-5.494,-5.5063,-5.5051,-5.5047,-5.5044,-5.5122,-5.5114,-5.5375,-5.5409,-5.5187,-5.5189,-5.5191,0,-5.4396,-5.4468,-5.4518,-5.4562,-5.459,-5.4661,-5.4704,-5.4703,-5.4749,-5.4808,-5.4862,-5.4935,-5.4993,-5.5116,-5.5136,-5.5203,-5.5191,-5.5278,-5.5201,-5.5201,-5.519,-5.5185,-5.5192,-5.5293,-5.5295,-5.5297,-5.5299,0,-5.4594,-5.4596,-5.4659,-5.4726,-5.4778,-5.483,-5.4878,-5.4916,-5.492,-5.4973,-5.505,-5.5096,-5.5186,-5.5258,-5.5324,-5.5348,-5.5324,-5.5324,-5.5345,-5.5347,-5.5341,-5.5344,-5.5086,-5.5317,-5.5315,-5.5314,-5.5313,-5.5312,-5.4735,-5.4797,-5.4842,-5.4914,-5.4951,-5.4997,-5.5057,-5.5077,-5.5141,-5.5214,-5.521,-5.5295,-5.534,-5.5426,-5.5456,-5.5522,-5.5492,-5.5524,-5.5531,-5.5539,-5.5546,-5.5333,-5.5534,-5.5534,-5.5533,-5.5533,-5.5533,0,-5.493,-5.4958,-5.5024,-5.5093,-5.515,-5.5124,-5.5177,-5.5225,-5.5301,-5.5345,-5.5404,-5.5492,-5.5563,-5.559,-5.5659,-5.5707,-5.5697,-5.5725,-5.572,-5.5726,-5.5569,-5.5543,-5.5731,-5.5731,-5.5731,-5.5731,-5.5731,-5.5731,-5.5037,-5.5141,-5.5148,-5.5269,-5.5296,-5.538,-5.5412,-5.5455,-5.549,-5.559,-5.5649,-5.5667,-5.5704,-5.5776,-5.584,-5.5846,-5.5872,-5.5904,-5.5905,-5.5757,-5.5737,-5.5718,-5.5693,-5.591,-5.591,-5.6056,-5.6057,-5.6058]},{"header":{"parameterUnit":"m.s-1","parameterCategory":1,"la1":30.2991,"la2":30.254,"lo1":-89.0895,"lo2":-89.0444,"dy":0.0017,"dx":0.0017,"nx":28,"ny":28,"refTime":"2024-05-05T09:00:00:Z","depth":0,"parameterNumber":3,"parameterNumberName":"V-component_of_WINDS"},"data":[0,0,0,0,0,0,0,0,0,0,0,0,0,0,0,0,0,0,0,0,0,0,0,0,0,0,0,0,0,0,0,0,0,0,0,0,0,0,0,0,0,0,0,0,0,0,0,0,0,0,0,0,0,0,0,0,0,0,2.649,2.6492,0,2.659,2.6591,2.6593,2.6623,2.6623,2.6623,2.6622,2.672,2.6723,2.6726,0,0,0,0,0,0,0,0,0,0,0,0,0,2.6323,2.6326,2.649,2.6492,2.6493,2.659,2.6592,2.6593,2.6624,2.6623,2.6622,2.6622,2.6719,2.6723,2.6726,0,0,0,0,0,0,0,0,0,0,0,0,0,2.6407,2.6327,2.649,2.652,2.6524,2.659,2.6592,2.6593,2.6624,2.6623,2.6622,2.6622,2.6718,2.6722,2.6727,2.6769,0,0,2.6741,2.6743,0,0,0,0,0,0,0,0,2.6402,2.6413,2.6514,2.6518,2.6522,2.6594,2.6569,2.6652,2.6624,2.6586,2.6622,2.6621,2.6678,2.6686,2.6706,2.6774,2.6778,2.6741,2.6744,2.6746,2.6747,0,0,0,0,0,0,0,2.6396,2.6409,2.653,2.6516,2.6521,2.6528,2.6539,2.6585,2.6634,2.6589,2.6591,2.6603,2.668,2.6702,2.6709,2.6779,2.6741,2.6745,2.6748,2.675,2.6888,2.6889,0,0,0,0,0,0,2.6386,2.6404,2.6527,2.6533,2.6459,2.6531,2.6544,2.6571,2.6634,2.6643,2.6603,2.6604,2.6694,2.6703,2.6712,2.6767,2.6746,2.675,2.6753,2.6887,2.6888,2.6889,0,0,0,0,0,0,2.6382,2.6396,2.6523,2.6469,2.6486,2.6535,2.6566,2.6574,2.6595,2.6645,2.6654,2.6616,2.6694,2.6706,2.6756,2.6771,2.6752,2.6756,2.6886,2.6888,2.6889,2.6876,0,0,0,0,0,0,2.6377,2.6395,2.6412,2.6469,2.6488,2.6565,2.6567,2.6576,2.6604,2.6605,2.666,2.6668,2.6694,2.6749,2.676,2.6777,2.676,2.6885,2.6887,2.6888,2.6875,2.6877,2.6878,0,0,0,0,0,2.6371,2.6403,2.6413,2.6427,2.6511,2.6566,2.6576,2.6607,2.6605,2.6622,2.6655,2.6666,2.6767,2.6753,2.6767,2.6785,2.6884,2.6886,2.6888,2.6875,2.6876,2.6878,0,0,0,0,0,0,2.6344,2.6411,2.6422,2.6474,2.6514,2.6571,2.6593,2.6608,2.6649,2.6648,2.6684,2.6696,2.6743,2.6769,2.6752,2.683,2.6826,2.6831,2.6811,2.6813,2.6815,2.6807,2.6764,0,0,0,0,0,2.6345,2.6385,2.644,2.6481,2.65,2.6544,2.6568,2.6589,2.6631,2.6648,2.6684,2.6723,2.6765,2.679,2.6831,2.688,2.6892,2.6899,2.69,2.6901,2.6905,2.6933,2.6937,2.6896,2.6896,2.6896,0,0,2.6345,2.6387,2.6409,2.6476,2.651,2.655,2.6557,2.6599,2.6629,2.6654,2.6704,2.6731,2.6778,2.6828,2.6851,2.6851,2.6919,2.6904,2.6904,2.6907,2.6936,2.694,2.6943,2.6898,2.6898,2.6897,0,0,2.6367,2.6402,2.6441,2.6475,2.6526,2.6555,2.6564,2.6619,2.6639,2.669,2.671,2.6746,2.6815,2.6848,2.6874,2.691,2.6923,2.6922,2.6929,2.6957,2.696,2.6963,2.6977,2.6981,2.6926,2.6926,2.6926,0,2.6361,2.6423,2.6458,2.6499,2.6528,2.6555,2.6594,2.6625,2.6686,2.6705,2.6704,2.6793,2.6826,2.6884,2.6894,2.6913,2.6925,2.6916,2.6957,2.6961,2.6964,2.6977,2.6982,2.6925,2.6926,2.6926,2.6926,0,2.6413,2.6456,2.648,2.6541,2.6573,2.6612,2.6653,2.6681,2.6699,2.6728,2.678,2.6821,2.6871,2.6886,2.6903,2.6947,2.6946,2.695,2.6947,2.6967,2.698,2.6985,2.6925,2.6925,2.6925,2.6925,0,0,2.6419,2.6501,2.6509,2.6537,2.6597,2.663,2.6671,2.6722,2.6745,2.6787,2.6822,2.6882,2.6887,2.6916,2.6938,2.6962,2.699,2.6965,2.6966,2.6968,2.7041,2.7037,2.7042,2.6999,2.7,2.7001,2.7037,0,2.6448,2.6524,2.6558,2.6618,2.6658,2.6686,2.6722,2.6762,2.679,2.6828,2.6859,2.6901,2.6905,2.6923,2.6948,2.6981,2.7005,2.6979,2.7031,2.7032,2.7018,2.7049,2.7044,2.7076,2.7042,2.7043,2.7044,0,2.6492,2.6537,2.6602,2.6658,2.6676,2.6708,2.6758,2.6794,2.684,2.6859,2.6893,2.6914,2.6958,2.6953,2.7014,2.6995,2.7019,2.7038,2.704,2.7046,2.7039,2.7055,2.7087,2.7092,2.7052,2.7051,2.7051,0,2.6491,2.6566,2.6615,2.6639,2.6706,2.6728,2.6757,2.6803,2.6831,2.6875,2.6894,2.6941,2.6966,2.7002,2.7035,2.7028,2.7093,2.709,2.7109,2.7108,2.7121,2.712,2.7157,2.7136,2.7136,2.7136,2.7136,0,2.652,2.6558,2.6616,2.6646,2.669,2.6728,2.6771,2.6801,2.6842,2.6878,2.6904,2.6937,2.698,2.7018,2.7044,2.7091,2.7102,2.7118,2.7125,2.7116,2.7114,2.7131,2.713,2.7138,2.7137,2.7137,2.7137,0,2.6525,2.6565,2.662,2.668,2.6696,2.6726,2.6777,2.6807,2.6838,2.6883,2.6896,2.6944,2.699,2.7027,2.7087,2.7105,2.7154,2.7161,2.7139,2.7142,2.716,2.7158,2.721,2.7219,2.7192,2.7192,2.7192,0,2.6541,2.6571,2.6636,2.6663,2.6692,2.6734,2.6765,2.6804,2.6834,2.689,2.6913,2.6962,2.7004,2.7077,2.7116,2.7162,2.7171,2.7186,2.7178,2.7168,2.7171,2.7169,2.7172,2.7186,2.7187,2.7187,2.7187,0,2.6565,2.6583,2.6627,2.6678,2.6714,2.6755,2.6797,2.6817,2.6863,2.6896,2.6945,2.6977,2.7041,2.7089,2.714,2.7168,2.7185,2.7189,2.7196,2.7187,2.7173,2.7181,2.7142,2.7188,2.7188,2.7188,2.7187,2.7187,2.6576,2.6605,2.6655,2.6703,2.6739,2.6778,2.681,2.6845,2.6888,2.6943,2.6963,2.7014,2.706,2.7131,2.716,2.72,2.7201,2.7211,2.7214,2.7215,2.7215,2.7168,2.7209,2.7209,2.7209,2.7209,2.7209,0,2.6601,2.6636,2.6679,2.6738,2.6776,2.6791,2.6838,2.6868,2.6913,2.6956,2.6997,2.7054,2.7101,2.7145,2.7195,2.7218,2.7227,2.7229,2.7228,2.7234,2.721,2.72,2.7221,2.7221,2.7221,2.7221,2.7221,2.7221,2.6619,2.667,2.6695,2.6763,2.6797,2.6848,2.6874,2.691,2.6945,2.7008,2.7049,2.7078,2.7121,2.7174,2.7218,2.723,2.7247,2.7247,2.7261,2.7238,2.7236,2.7234,2.7224,2.7251,2.7251,2.7281,2.7282,2.7282]}]]